India Forums Logo

Afsar Bitiya

India Forums > Forum Index > Afsar Bitiya
Afsar Bitiya is a story of a girl who makes a mark in her life and becomes someone to reckon in the society only through sheer hard work and dedication towards studies.
<< | 1 | 2 | 3 | 4 | 5 | 6 | 7 | 8 | 9 | 10 | 11 | 12 | 13 | 14 | 15 | 16 | 17 | ... >>
TIDTopic SubjectStart DateLast Entry
2789466Krishna's Expression At the End- Feb 14th.2/15/2012 2:17:16 AM2/15/2012 1:56:01 PM
2789619~**TRP Ratings**~2/15/2012 4:33:56 AM2/16/2012 11:39:39 AM
2789697kinshuk& yash (Times Of India)2/15/2012 6:09:22 AM2/15/2012 1:36:50 PM
2789725AB- ALL TRP Info here(week 6 TRP 1.53)2/15/2012 6:35:32 AM3/1/2012 11:24:19 AM
2789727Kinshuk Mahajan and Yash Sinha are 'sahelis'2/15/2012 6:36:24 AM2/15/2012 6:36:24 AM
2789740Love story2/15/2012 6:45:04 AM2/15/2012 5:43:55 PM
2789819Precap-16th Feb2/15/2012 7:41:31 AM2/15/2012 9:22:19 PM
2789820Lovedd Pintu-Sargam scenes 2dy :)2/15/2012 7:41:42 AM2/15/2012 1:35:43 PM
2789830Prishna's Feelings !!!!2/15/2012 7:47:54 AM2/15/2012 1:23:35 PM
2789840Great show2/15/2012 7:54:13 AM2/22/2012 8:49:37 PM
279002615/2/12 - WU - Pinto Ji in a Dilemma2/15/2012 9:18:18 AM2/16/2012 11:44:10 AM
2790280MY THOUGHTS2/15/2012 11:35:43 AM2/16/2012 4:36:38 AM
2791042Kinshuk and Shivshakti UMTV seg -16 feb(VDO ADDED)2/16/2012 4:55:40 AM2/17/2012 5:33:02 AM
2791075do me a fav2/16/2012 5:28:08 AM2/17/2012 12:34:18 AM
2791089shiv and kinshuk connection2/16/2012 5:37:34 AM2/18/2012 3:42:38 AM
2791090Ooolala Ooolala *Pintoo Meri Fantasy* !! =))2/16/2012 5:37:49 AM2/18/2012 4:57:54 AM
2791140hi2/16/2012 6:34:28 AM2/17/2012 1:58:17 AM
2791226Krishna's Bag stolen :O2/16/2012 7:28:27 AM2/17/2012 7:11:00 AM
2791232Pintuji - loving you!2/16/2012 7:29:43 AM2/16/2012 8:13:19 AM
2791276I lost interest in this show.. did anybody?2/16/2012 7:58:36 AM2/22/2012 12:22:22 AM
2791379was the cat really black?2/16/2012 8:44:20 AM2/16/2012 1:24:30 PM
2791825Krishna in Precap2/16/2012 12:39:26 PM2/16/2012 1:35:33 PM
2791855WU Feb16 - Beginning of Krishna's mis-fate2/16/2012 1:19:39 PM2/17/2012 8:56:26 AM
2791871Will Pinky or Krishna?2/16/2012 1:48:49 PM2/19/2012 2:50:08 PM
2792211Krishna and Pintu2/16/2012 11:15:50 PM2/18/2012 9:04:16 PM
2792582KinAsh,Shivshakti UMTV seg - 17 Feb :))2/17/2012 6:19:18 AM2/17/2012 2:12:51 PM
2792601Afsar Bitiya and hereafter2/17/2012 6:38:52 AM2/22/2012 2:46:21 AM
2792647Kinshukh Mahajan and his love story2/17/2012 7:08:32 AM2/19/2012 5:34:12 PM
2792672Shiv,Kinshuk,Yash SBB Segment2/17/2012 7:25:15 AM2/17/2012 7:25:15 AM
2792754On Location of Afsar Bitiya On Location of Afsar2/17/2012 8:07:21 AM2/17/2012 8:29:56 AM
2792847Pintu's Worry ..2/17/2012 8:36:38 AM2/17/2012 11:22:58 AM
2792972WU Feb17 - Find Bag mission.2/17/2012 9:20:23 AM2/17/2012 11:13:03 PM
2793041Krishna's Interview2/17/2012 9:42:55 AM2/17/2012 11:09:33 PM
2793279DC will Know2/17/2012 11:28:53 AM2/18/2012 3:48:25 AM
2793359Dying to see Pintu's reaction...2/17/2012 12:23:46 PM2/18/2012 11:15:44 PM
2793866Afsar Bitiya ??2/18/2012 12:24:16 AM2/18/2012 5:06:39 AM
2794152Prishna VS BDO2/18/2012 5:26:49 AM2/19/2012 7:38:55 AM
2794168Idiot box to spread social mssg-AB2/18/2012 5:58:42 AM2/18/2012 2:30:58 PM
2794182Breaking the mold shiv and kinshuk2/18/2012 6:16:49 AM2/20/2012 12:47:42 AM
2794195my thoughts on krishna2/18/2012 6:35:20 AM2/18/2012 8:08:27 AM
2794559Rank and Chaskameter2/18/2012 1:28:30 PM2/19/2012 5:28:36 AM
2794651||Dabangg Pinto Singh - AT 4||note @ pg1272/18/2012 5:07:31 PM3/30/2012 4:02:02 PM
2794656Song Lyrics2/18/2012 5:16:50 PM2/18/2012 6:29:56 PM
2794798happy2/18/2012 11:13:51 PM2/19/2012 2:49:24 PM
2795022Which Episode U love d most in Last week ?2/19/2012 4:53:54 AM2/20/2012 12:12:16 AM
2795045Do you think AB can gain more Popularity?2/19/2012 5:32:09 AM2/24/2012 6:37:28 AM
2795429-//-Promotional Siggy Contest Winner-\\-2/19/2012 2:30:00 PM2/21/2012 2:12:37 PM
2795456Havnt Watched AB In Aaageesss2/19/2012 4:13:31 PM2/20/2012 3:51:27 AM
2795668Babloo fan2/20/2012 12:08:38 AM2/20/2012 7:23:30 AM
2795833AB isn't on Front Page of ZEE TV!2/20/2012 3:17:33 AM2/21/2012 12:52:57 PM
2796100A feel good episode today2/20/2012 7:09:39 AM2/21/2012 12:09:41 AM
2796125Pintu helps Krishna :))2/20/2012 7:24:58 AM2/21/2012 7:14:44 AM
2796141Prishna Aur Hankerchief :))2/20/2012 7:34:59 AM2/21/2012 12:22:25 PM
2796145Pintu - Pinky aur Wet Tissues :P2/20/2012 7:43:23 AM2/20/2012 8:22:01 AM
2796153Kab tak wait karo2/20/2012 7:48:41 AM2/21/2012 12:07:38 AM
279618420/2/12 - WU - Krishna Impresses the Interviewers!2/20/2012 8:05:53 AM2/20/2012 11:06:55 PM
2796269Krishna Interview2/20/2012 8:36:15 AM2/20/2012 9:22:36 AM
2796659Pinky As Priyanka2/20/2012 11:02:00 AM3/4/2012 1:23:35 AM
2796962SBS: Pinky of 'Afsar Bitiya' is in love with Pintu2/20/2012 4:50:16 PM2/21/2012 8:49:36 PM
2797085afsar bityia time change?2/20/2012 8:55:39 PM2/21/2012 12:14:48 AM
2797145Pintu's thoughts towards Krishna2/20/2012 10:21:00 PM2/20/2012 10:21:00 PM
2797275KAALI BILLI ON SET...2/21/2012 12:37:13 AM2/21/2012 2:01:06 PM
2797549TB: pinky to attempt suicide2/21/2012 3:55:32 AM2/21/2012 2:00:36 PM
2797694Plzzz Comment2/21/2012 6:20:13 AM2/21/2012 2:03:20 PM
2797784Prishna scene - BRILLIANT!2/21/2012 7:19:36 AM2/21/2012 2:02:52 PM
2797798Killing look2/21/2012 7:25:32 AM2/22/2012 8:47:51 PM
2797827Prishna have their official song!2/21/2012 7:42:09 AM2/22/2012 3:32:07 AM
279786721/2/12 - WU - Love Blooming between Pinto&Krishna2/21/2012 8:02:44 AM2/22/2012 2:05:57 PM
2797954Bihari: An endless tale of disgusting safari suits2/21/2012 8:40:08 AM3/2/2012 5:01:16 PM
2797991What will be DBPS reaction ???2/21/2012 8:56:25 AM2/21/2012 4:55:54 PM
2797997Cute Kinash and krishna scene :P2/21/2012 9:00:43 AM2/21/2012 2:07:03 PM
2798289Pinky Suicide Track2/21/2012 12:06:28 PM2/21/2012 5:01:12 PM
2798322Pinky Suicide2/21/2012 12:32:19 PM2/21/2012 10:36:59 PM
2798368Krishna and Pintu II2/21/2012 1:20:18 PM2/24/2012 4:35:42 AM
2798469Here's what might happen...2/21/2012 3:46:04 PM2/24/2012 8:19:02 AM
<< | 1 | 2 | 3 | 4 | 5 | 6 | 7 | 8 | 9 | 10 | 11 | 12 | 13 | 14 | 15 | 16 | 17 | ... >>